Location: Castifao
(42.5040°N, 9.1124°E)
Time: 03:46:59
(UTC+00:00)

CZ-4 R/B - Pass Details

Date: 23 January 2020
Orbit: 534 x 597 km, 97.7° (Epoch: 18 February)

Event Time Altitude Azimuth Distance (km) Brightness Sun altitude
Rises 17:23:40 0° 154° (SSE) 2,743 4.8 -10.9°
Reaches altitude 10° 17:25:48 10° 150° (SSE) 1,862 3.9 -11.3°
Maximum altitude 17:29:44 53° 73° (ENE) 711 1.5 -12.0°
Drops below altitude 10° 17:33:46 10° 357° (N) 1,912 4.0 -12.7°
Sets 17:36:00 0° 353° (N) 2,826 4.9 -13.1°
